Hourly Data Report for October 25, 2015

All times are specified in Local Standard Time (LST). Add 1 hour to adjust for Daylight Saving Time where and when it is observed.

RANKIN INLET A
NUNAVUT

62°48'38.000" N
92°06'53.000" W
32.30 m
2303405
71083
YRT

Download Data

Hourly Data (October 2015)
Hourly Data Report for October 25, 2015
Temp Definition
°C
Dew Point Temp Definition
°C
Rel Hum Definition
%
Wind Dir Definition
10's deg

Wind Spd Definition
km/h
Visibility Definition
km
Stn Press Definition
kPa
Hmdx Definition


Wind Chill Definition


Weather Definition


TIME
00:00 Legend Double Dagger -15.2 -17.9 80 30 37 24.1 100.76   -27 Snow,Blowing Snow
01:00 Legend Double Dagger -15.4 -18.1 80 30 35 24.1 100.77   -27 Snow,Blowing Snow
02:00 Legend Double Dagger -16.2 -18.7 81 30 31 24.1 100.81   -28 Snow,Blowing Snow
03:00 Legend Double Dagger -15.4 -17.8 82 30 33 24.1 100.83   -27 Ice Crystals
04:00 Legend Double Dagger -15.2 -17.8 81 30 32 24.1 100.83   -27 Ice Crystals
05:00 Legend Double Dagger -15.3 -17.9 81 30 34 24.1 100.84   -27 Ice Crystals
06:00 Legend Double Dagger -15.8 -18.5 80 30 38 24.1 100.85   -28 Ice Crystals,Blowing Snow
07:00 Legend Double Dagger -16.1 -18.8 80 30 32 24.1 100.88   -28 Ice Crystals,Blowing Snow
08:00 Legend Double Dagger -15.2 -17.8 81 29 33 24.1 100.86   -27 Ice Crystals,Blowing Snow
09:00 Legend Double Dagger -15.2 -18.1 79 30 34 24.1 100.88   -27 Ice Crystals,Blowing Snow
10:00 Legend Double Dagger -15.2 -18.2 78 30 36 24.1 100.87   -27 Ice Crystals,Blowing Snow
11:00 Legend Double Dagger -13.9 -16.8 79 30 40 12.9 100.83   -26 Ice Crystals,Blowing Snow
12:00 Legend Double Dagger -13.3 -16.2 79 31 42 6.4 100.81   -25 Ice Crystals,Blowing Snow
13:00 Legend Double Dagger -13.3 -16.1 80 31 34 1.2 100.82   -24 Snow,Blowing Snow
14:00 Legend Double Dagger -13.3 -16.2 79 31 42 16.1 100.82   -25 Ice Crystals,Blowing Snow
15:00 Legend Double Dagger -13.3 -16.1 80 30 41 24.1 100.83   -25 Ice Crystals,Blowing Snow
16:00 Legend Double Dagger -14.4 -17.1 80 30 41 24.1 100.78   -27 Ice Crystals,Blowing Snow
17:00 Legend Double Dagger -15.0 -18.0 78 30 48 24.1 100.77   -28 Ice Crystals,Blowing Snow
18:00 Legend Double Dagger -15.6 -18.6 78 30 48 24.1 100.74   -29 Ice Crystals,Blowing Snow
19:00 Legend Double Dagger -16.3 -19.1 79 30 41 24.1 100.72   -29 Ice Crystals,Blowing Snow
20:00 Legend Double Dagger -16.2 -19.0 79 30 39 24.1 100.70   -29 Ice Crystals,Blowing Snow
21:00 Legend Double Dagger -16.9 -19.9 78 30 40 24.1 100.64   -30 Ice Crystals,Blowing Snow
22:00 Legend Double Dagger -16.8 -19.6 79 30 41 24.1 100.62   -30 Ice Crystals,Blowing Snow
23:00 Legend Double Dagger -16.9 -19.7 79 30 36 24.1 100.61   -29 Ice Crystals,Blowing Snow

Notes on Data Quality.

Legend

  • E = Estimated
  • M = Missing
  • NA = Not Available
  • ‡ = Partner data that is not subject to review by the National Climate Archives
Date modified: